Regional Weather Roundup
Issued by NWS Jackson, KY

Home | Current Version | Previous Version | Text Only | Print | Product List | Glossary Off
Versions: 1 2 3 4 5 6 7 8 9 10 11 12 13 14 15 16 17 18 19 20 21 22 23 24 25 26 27

000
ASUS43 KJKL 201210
RWRJKL

EAST KENTUCKY HOURLY WEATHER ROUNDUP
NATIONAL WEATHER SERVICE JACKSON KY
800 AM EDT FRI APR 20 2018

NOTE: "FAIR" INDICATES FEW OR NO CLOUDS BELOW 12,000 FEET WITH
NO SIGNIFICANT WEATHER AND/OR OBSTRUCTIONS TO VISIBILITY.

* THESE REPORTS ARE NOT UNDER NWS QUALITY CONTROL AND MAY NOT
  REPORT WEATHER SUCH AS PRECIPITATION AND FOG.

KYZ079-080-083-085-087-088-110-112-115-119-120-201300
...EASTERN KENTUCKY...

CITY           SKY/WX    TMP DP  RH WIND       PRES   REMARKS
JACKSON          N/A     38  29  70 VRB5      30.39R WCI  34
6HR MIN TEMP:  35; 6HR MAX TEMP:  38;

LONDON           N/A     31  31 100 CALM      30.39R
6HR MIN TEMP:  29; 6HR MAX TEMP:  33;

SOMERSET*        N/A     30  30 100 CALM      30.42R
MONTICELLO*      N/A     32  31  96 NW8       30.42R WCI  25
6HR MIN TEMP:  24; 6HR MAX TEMP:  32;

WILLIAMSBURG*    N/A     30  30 100 CALM      30.40R VSB 1/2
MIDDLESBORO*     N/A     31  31 100 CALM      30.41S
6HR MIN TEMP:  29; 6HR MAX TEMP:  32;

HARLAN APT*    CLOUDY    31  31  99 CALM      30.39R
PIKE CO APT*     N/A     37  30  78 CALM      30.39R
BIG SANDY APT*   N/A     38  31  78 NE3       30.41R
6HR MIN TEMP:  33; 6HR MAX TEMP:  38;

MOREHEAD APT*    N/A     39  28  65 E5        30.43R
ASHLAND*         N/A     32  31  96 CALM      30.45R
$$

KYZ035-036-041-042-044-050-067-078-099-201300
...CENTRAL KENTUCKY...

CITY           SKY/WX    TMP DP  RH WIND       PRES   REMARKS
MT STERLING*     N/A     36  32  87 NE6       30.43R WCI  31
FLEMING/MASON*   N/A     36  32  86 E6        30.43S WCI  31
DANVILLE*        N/A     34  30  86 CALM      30.43R
LEXINGTON        N/A     37  28  70 N6        30.42R WCI  32
6HR MIN TEMP:  34; 6HR MAX TEMP:  40;

FRANKFORT        N/A     37  26  64 N7        30.42R WCI  32
6HR MIN TEMP:  33; 6HR MAX TEMP:  41;

LOUISVILLE       N/A     38  25  59 N6        30.45R WCI  33
6HR MIN TEMP:  36; 6HR MAX TEMP:  45;

GLASGOW*         N/A     35  29  81 NE5       30.41R WCI  30
BOWLING GREEN    N/A     38  30  73 NE6       30.42R WCI  33
6HR MIN TEMP:  33; 6HR MAX TEMP:  38;

$$

KYZ091>093-OHZ055-061-077-WVZ005-015-034-035-042-201300
...SOUTHERN OHIO/WEST VIRGINIA...

CITY           SKY/WX    TMP DP  RH WIND       PRES   REMARKS
COVINGTON        N/A     36  28  73 N8        30.44R WCI  30
COLUMBUS         N/A     34  27  75 CALM      30.44R
DAYTON           N/A     32  29  88 N5        30.46R WCI  27
WILMINGTON       N/A     38  32  79 N6        30.43R WCI  33
HUNTINGTON       N/A     36  28  73 CALM      30.42R
CHARLESTON       N/A     34  30  85 CALM      30.40R
PINEVILLE*       N/A     29  28  96 MISG        N/A
BECKLEY          N/A     33  18  53 N9        30.33R WCI  25
BLUEFIELD        N/A     32  25  75 CALM      30.33R
LOGAN CO APT*    N/A     39  23  52 CALM      30.38R
$$

VAZ002-007-008-TNZ017-027-036-066-071-201300
...SOUTHWEST VIRGINIA/EAST TENNESSEE...

CITY           SKY/WX    TMP DP  RH WIND       PRES   REMARKS
WISE*            N/A     36  32  87 N7        30.36R WCI  30
JONESVILLE*      N/A     30  28  93 CALM      30.41R
ABINGDON*        N/A     35  30  85 CALM      30.36R
BRISTOL          N/A     33  31  92 CALM      30.39R
MORRISTOWN*    SUNNY     36  30  80 CALM      30.38R
SEVIERVILLE*   SUNNY     32  30  93 CALM      30.38R
KNOXVILLE        N/A     39  31  72 NE10      30.36R WCI  32
LAFOLLETTE*    SUNNY     32  32 100 CALM      30.42R
OAK RIDGE        N/A     36  34  92 VRB3      30.40R
CROSSVILLE       N/A     35  29  78 E6        30.35R WCI  30
NASHVILLE        N/A     39  34  82 NE5       30.40R
$$

...KEY TO REMARKS...
VSB - VISIBILITY IN MILES
WCI - WIND CHILL INDEX
HX  - HEAT INDEX

$$




USA.gov is the U.S. government's official web portal to all federal, state and local government web resources and services.